CPA512 VHHH-RJFF

Flight info

Callsign CPA512
Flight time 2h 48m
Altitude 39000
Route DALOL V631 ENVAR M750 MOMPA Y25 ISKUP
Aircraft A359/H-SDE2E3GHIJ3J4J5LM1ORWXY/LB1D1

Departure

Time 2026-05-07 12:43
Airport Hong Kong International Airport (VHHH)

Arrival

Time 2026-05-07 15:32
Airport Fukuoka Airport (RJFF)
Time Latitude Longitude Altitude Speed Heading
2026-05-07 12:02 22.31109 113.92741 38 ft 0 kts 296°
2026-05-07 12:26 22.31101 113.92758 38 ft 4 kts 296°
2026-05-07 12:27 22.31092 113.92779 38 ft 4 kts 293°
2026-05-07 12:27 22.31083 113.92806 38 ft 4 kts 282°
2026-05-07 12:27 22.31081 113.92834 38 ft 4 kts 252°
2026-05-07 12:27 22.31094 113.92852 38 ft 4 kts 206°
2026-05-07 12:28 22.31119 113.92864 38 ft 4 kts 206°
2026-05-07 12:28 22.31140 113.92875 38 ft 3 kts 206°
2026-05-07 12:28 22.31164 113.92887 38 ft 4 kts 212°
2026-05-07 12:28 22.31176 113.92903 38 ft 3 kts 251°
2026-05-07 12:29 22.31185 113.92930 38 ft 4 kts 251°
2026-05-07 12:29 22.31187 113.92936 38 ft 0 kts 251°
2026-05-07 12:34 22.31186 113.92932 38 ft 4 kts 251°
2026-05-07 12:34 22.31161 113.92891 37 ft 7 kts 219°
2026-05-07 12:35 22.31083 113.92845 38 ft 17 kts 205°
2026-05-07 12:35 22.30973 113.92789 38 ft 18 kts 206°
2026-05-07 12:35 22.30865 113.92731 38 ft 11 kts 210°
2026-05-07 12:35 22.30821 113.92664 37 ft 12 kts 248°
2026-05-07 12:36 22.30772 113.92517 38 ft 24 kts 250°
2026-05-07 12:36 22.30720 113.92358 38 ft 23 kts 250°
2026-05-07 12:36 22.30668 113.92194 38 ft 24 kts 251°
2026-05-07 12:36 22.30614 113.92023 38 ft 25 kts 252°
2026-05-07 12:37 22.30559 113.91845 38 ft 25 kts 251°
2026-05-07 12:37 22.30500 113.91662 38 ft 26 kts 250°
2026-05-07 12:37 22.30437 113.91474 38 ft 27 kts 250°
2026-05-07 12:37 22.30374 113.91281 38 ft 28 kts 251°
2026-05-07 12:38 22.30316 113.91102 37 ft 22 kts 251°
2026-05-07 12:38 22.30270 113.90962 38 ft 20 kts 251°
2026-05-07 12:38 22.30224 113.90815 38 ft 21 kts 251°
2026-05-07 12:38 22.30182 113.90679 38 ft 16 kts 251°
2026-05-07 12:39 22.30145 113.90566 38 ft 17 kts 248°
2026-05-07 12:39 22.30105 113.90444 38 ft 18 kts 251°
2026-05-07 12:39 22.30063 113.90311 38 ft 19 kts 251°
2026-05-07 12:39 22.30017 113.90170 38 ft 21 kts 250°
2026-05-07 12:40 22.29969 113.90020 38 ft 22 kts 251°
2026-05-07 12:40 22.29918 113.89863 38 ft 21 kts 251°
2026-05-07 12:40 22.29889 113.89778 37 ft 6 kts 245°
2026-05-07 12:40 22.29857 113.89740 38 ft 7 kts 211°
2026-05-07 12:41 22.29807 113.89743 37 ft 8 kts 163°
2026-05-07 12:41 22.29756 113.89761 38 ft 0 kts 162°
2026-05-07 12:41 22.29735 113.89768 38 ft 7 kts 162°
2026-05-07 12:42 22.29675 113.89790 36 ft 12 kts 161°
2026-05-07 12:42 22.29622 113.89833 36 ft 4 kts 90°
2026-05-07 12:42 22.29640 113.89874 36 ft 14 kts 65°
2026-05-07 12:42 22.29724 113.90121 36 ft 64 kts 70°
2026-05-07 12:43 22.29944 113.90804 38 ft 126 kts 71°
2026-05-07 12:43 22.30287 113.91852 163 ft 161 kts 71°
2026-05-07 12:43 22.30641 113.92917 950 ft 151 kts 71°
2026-05-07 12:43 22.30998 113.94001 1504 ft 155 kts 71°
2026-05-07 12:44 22.31371 113.95119 1947 ft 162 kts 69°
2026-05-07 12:44 22.31817 113.96269 2359 ft 172 kts 66°
2026-05-07 12:44 22.32163 113.97295 2583 ft 188 kts 73°
2026-05-07 12:44 22.32574 113.98710 2881 ft 207 kts 73°
2026-05-07 12:45 22.33027 114.00234 3369 ft 217 kts 72°
2026-05-07 12:45 22.33506 114.01800 3956 ft 222 kts 73°
2026-05-07 12:45 22.33811 114.03448 4565 ft 226 kts 87°
2026-05-07 12:45 22.33627 114.05136 5185 ft 229 kts 108°
2026-05-07 12:46 22.32890 114.06665 5819 ft 232 kts 129°
2026-05-07 12:46 22.31692 114.07844 6400 ft 239 kts 147°
2026-05-07 12:46 22.30138 114.08599 6794 ft 253 kts 166°
2026-05-07 12:46 22.28373 114.08813 7378 ft 259 kts 180°
2026-05-07 12:47 22.26520 114.08790 7759 ft 275 kts 181°
2026-05-07 12:47 22.24565 114.08740 8282 ft 285 kts 181°
2026-05-07 12:47 22.22566 114.08700 8938 ft 289 kts 181°
2026-05-07 12:47 22.20542 114.08670 9593 ft 293 kts 181°
2026-05-07 12:48 22.18488 114.08754 10190 ft 300 kts 172°
2026-05-07 12:48 22.16473 114.09510 10492 ft 318 kts 148°
2026-05-07 12:48 22.14852 114.11196 10772 ft 335 kts 123°
2026-05-07 12:48 22.13695 114.13438 11082 ft 350 kts 117°
2026-05-07 12:49 22.12592 114.15836 11346 ft 364 kts 117°
2026-05-07 12:49 22.11442 114.18320 11650 ft 376 kts 117°
2026-05-07 12:49 22.10250 114.20864 12074 ft 383 kts 117°
2026-05-07 12:49 22.09036 114.23433 12559 ft 387 kts 117°
2026-05-07 12:50 22.07611 114.25908 13048 ft 390 kts 130°
2026-05-07 12:50 22.05630 114.27900 13551 ft 392 kts 143°
2026-05-07 12:50 22.03436 114.29653 14048 ft 395 kts 145°
2026-05-07 12:50 22.01194 114.31397 14535 ft 398 kts 145°
2026-05-07 12:51 21.98948 114.33150 15015 ft 401 kts 145°
2026-05-07 12:51 21.96686 114.34923 15476 ft 404 kts 144°
2026-05-07 12:51 21.94408 114.36718 15915 ft 407 kts 144°
2026-05-07 12:51 21.92116 114.38520 16384 ft 410 kts 144°
2026-05-07 12:52 21.89808 114.40333 16824 ft 412 kts 144°
2026-05-07 12:52 21.87498 114.42190 17250 ft 416 kts 142°
2026-05-07 12:52 21.85471 114.44425 17667 ft 420 kts 127°
2026-05-07 12:52 21.84079 114.47191 18067 ft 424 kts 110°
2026-05-07 12:53 21.83201 114.50234 18474 ft 427 kts 105°
2026-05-07 12:53 21.82421 114.53328 18869 ft 430 kts 105°
2026-05-07 12:53 21.81638 114.56439 19268 ft 432 kts 105°
2026-05-07 12:53 21.80839 114.59576 19624 ft 436 kts 105°
2026-05-07 12:54 21.80304 114.61663 19864 ft 437 kts 105°
2026-05-07 12:54 21.79491 114.64825 20251 ft 440 kts 105°
2026-05-07 12:54 21.78669 114.68004 20623 ft 442 kts 105°
2026-05-07 12:54 21.77842 114.71200 20979 ft 445 kts 105°
2026-05-07 12:55 21.77007 114.74418 21369 ft 447 kts 105°
2026-05-07 12:55 21.76168 114.77650 21734 ft 450 kts 105°
2026-05-07 12:55 21.75324 114.80903 22082 ft 453 kts 105°
2026-05-07 12:55 21.74623 114.84215 22432 ft 456 kts 99°
2026-05-07 12:56 21.74330 114.87616 22785 ft 458 kts 92°
2026-05-07 12:56 21.74240 114.91048 23139 ft 460 kts 90°
2026-05-07 12:56 21.74241 114.94503 23475 ft 463 kts 89°
2026-05-07 12:56 21.74278 114.98021 23823 ft 466 kts 89°
2026-05-07 12:57 21.74318 115.01510 24166 ft 468 kts 89°
2026-05-07 12:57 21.74348 115.05022 24513 ft 470 kts 89°
2026-05-07 12:57 21.74365 115.08549 24864 ft 473 kts 89°
2026-05-07 12:57 21.74373 115.12097 25208 ft 476 kts 89°
2026-05-07 12:58 21.74372 115.15662 25580 ft 478 kts 90°
2026-05-07 12:58 21.74366 115.19247 25966 ft 481 kts 90°
2026-05-07 12:58 21.74359 115.22851 26358 ft 483 kts 89°
2026-05-07 12:58 21.74354 115.26475 26758 ft 486 kts 90°
2026-05-07 12:59 21.74345 115.30119 27175 ft 489 kts 90°
2026-05-07 12:59 21.74335 115.33783 27569 ft 491 kts 90°
2026-05-07 12:59 21.74325 115.37417 27957 ft 494 kts 90°
2026-05-07 12:59 21.74314 115.41123 28322 ft 497 kts 90°
2026-05-07 13:00 21.74304 115.44850 28679 ft 500 kts 89°
2026-05-07 13:00 21.74292 115.48599 29026 ft 503 kts 89°
2026-05-07 13:00 21.74280 115.52363 29380 ft 505 kts 89°
2026-05-07 13:00 21.74267 115.56158 29727 ft 507 kts 90°
2026-05-07 13:01 21.74251 115.59959 30046 ft 510 kts 89°
2026-05-07 13:01 21.74236 115.63783 30363 ft 512 kts 89°
2026-05-07 13:01 21.74221 115.67626 30674 ft 514 kts 89°
2026-05-07 13:01 21.74205 115.71481 30969 ft 517 kts 89°
2026-05-07 13:02 21.74189 115.75347 31251 ft 518 kts 89°
2026-05-07 13:02 21.74173 115.79232 31505 ft 521 kts 89°
2026-05-07 13:02 21.74155 115.83134 31759 ft 523 kts 89°
2026-05-07 13:02 21.74137 115.87041 32134 ft 522 kts 89°
2026-05-07 13:03 21.74117 115.90942 32528 ft 520 kts 89°
2026-05-07 13:03 21.74098 115.94827 32906 ft 519 kts 89°
2026-05-07 13:03 21.74076 115.98702 33227 ft 519 kts 89°
2026-05-07 13:03 21.74052 116.02576 33565 ft 518 kts 89°
2026-05-07 13:04 21.74028 116.06441 33917 ft 516 kts 89°
2026-05-07 13:04 21.74004 116.10300 34255 ft 515 kts 89°
2026-05-07 13:04 21.73978 116.14149 34562 ft 515 kts 89°
2026-05-07 13:04 21.73952 116.17998 34841 ft 515 kts 89°
2026-05-07 13:05 21.73927 116.21843 35131 ft 514 kts 89°
2026-05-07 13:05 21.73901 116.25686 35409 ft 514 kts 89°
2026-05-07 13:05 21.73872 116.29527 35670 ft 513 kts 89°
2026-05-07 13:05 21.73842 116.33364 35937 ft 513 kts 89°
2026-05-07 13:06 21.73811 116.37198 36187 ft 512 kts 89°
2026-05-07 13:06 21.73779 116.41027 36429 ft 512 kts 89°
2026-05-07 13:06 21.73745 116.44858 36641 ft 512 kts 89°
2026-05-07 13:06 21.73709 116.48681 36930 ft 511 kts 89°
2026-05-07 13:07 21.73672 116.52494 37286 ft 507 kts 89°
2026-05-07 13:07 21.73637 116.56271 37608 ft 504 kts 89°
2026-05-07 13:07 21.73602 116.60035 37846 ft 503 kts 89°
2026-05-07 13:07 21.73568 116.63794 38045 ft 503 kts 89°
2026-05-07 13:08 21.73531 116.67551 38243 ft 503 kts 89°
2026-05-07 13:08 21.73494 116.71307 38438 ft 502 kts 89°
2026-05-07 13:08 21.73528 116.75060 38601 ft 501 kts 84°
2026-05-07 13:08 21.73964 116.78762 38759 ft 498 kts 76°
2026-05-07 13:09 21.74884 116.82344 38892 ft 497 kts 69°
2026-05-07 13:09 21.76040 116.85853 38931 ft 498 kts 68°
2026-05-07 13:09 21.78536 116.92796 38935 ft 497 kts 66°
2026-05-07 13:10 21.81087 116.99713 38934 ft 497 kts 66°
2026-05-07 13:10 21.83614 117.06632 38931 ft 497 kts 66°
2026-05-07 13:11 21.86117 117.13561 38930 ft 497 kts 67°
2026-05-07 13:11 21.88610 117.20491 38928 ft 496 kts 67°
2026-05-07 13:12 21.91101 117.27426 38936 ft 496 kts 67°
2026-05-07 13:12 21.93588 117.34355 38930 ft 496 kts 67°
2026-05-07 13:13 21.96073 117.41287 38934 ft 496 kts 67°
2026-05-07 13:13 21.98578 117.48204 38932 ft 495 kts 64°
2026-05-07 13:14 22.01854 117.54701 38934 ft 493 kts 57°
2026-05-07 13:14 22.05410 117.61023 38935 ft 493 kts 56°
2026-05-07 13:15 22.09010 117.67318 38926 ft 493 kts 56°
2026-05-07 13:15 22.12603 117.73623 38932 ft 493 kts 56°
2026-05-07 13:16 22.16182 117.79935 38942 ft 493 kts 57°
2026-05-07 13:16 22.19751 117.86246 38945 ft 493 kts 57°
2026-05-07 13:17 22.23322 117.92571 38945 ft 493 kts 57°
2026-05-07 13:17 22.26885 117.98891 38942 ft 493 kts 57°
2026-05-07 13:18 22.30475 118.05195 38945 ft 493 kts 56°
2026-05-07 13:18 22.34151 118.11453 38945 ft 493 kts 56°
2026-05-07 13:19 22.37820 118.17701 38945 ft 493 kts 56°
2026-05-07 13:19 22.40874 118.22936 38942 ft 493 kts 56°
2026-05-07 13:20 22.44471 118.29247 38944 ft 493 kts 57°
2026-05-07 13:20 22.48017 118.35547 38951 ft 494 kts 57°
2026-05-07 13:21 22.51588 118.41883 38952 ft 494 kts 56°
2026-05-07 13:21 22.55166 118.48225 38955 ft 494 kts 56°
2026-05-07 13:22 22.58743 118.54563 38952 ft 494 kts 56°
2026-05-07 13:22 22.62349 118.60890 38952 ft 493 kts 56°
2026-05-07 13:23 22.65962 118.67215 38952 ft 494 kts 56°
2026-05-07 13:23 22.69570 118.73548 38952 ft 495 kts 56°
2026-05-07 13:24 22.73176 118.79897 38952 ft 495 kts 56°
2026-05-07 13:24 22.76775 118.86244 38952 ft 495 kts 56°
2026-05-07 13:25 22.80376 118.92601 38953 ft 495 kts 56°
2026-05-07 13:25 22.83971 118.98955 38955 ft 495 kts 56°
2026-05-07 13:26 22.87565 119.05319 38952 ft 495 kts 56°
2026-05-07 13:26 22.91161 119.11691 38954 ft 495 kts 56°
2026-05-07 13:27 22.94776 119.18107 38953 ft 495 kts 56°
2026-05-07 13:27 22.98341 119.24442 38962 ft 495 kts 56°
2026-05-07 13:28 23.01349 119.29793 38961 ft 495 kts 56°
2026-05-07 13:28 23.05565 119.37301 38962 ft 495 kts 56°
2026-05-07 13:29 23.09125 119.43651 38962 ft 496 kts 56°
2026-05-07 13:29 23.12733 119.50092 38962 ft 495 kts 56°
2026-05-07 13:30 23.16289 119.56445 38962 ft 496 kts 56°
2026-05-07 13:30 23.19871 119.62850 38962 ft 496 kts 56°
2026-05-07 13:31 23.23451 119.69262 38972 ft 496 kts 56°
2026-05-07 13:31 23.27032 119.75685 38970 ft 496 kts 56°
2026-05-07 13:32 23.30611 119.82112 38972 ft 496 kts 56°
2026-05-07 13:32 23.34184 119.88538 38971 ft 497 kts 56°
2026-05-07 13:33 23.38378 119.94429 38972 ft 491 kts 42°
2026-05-07 13:33 23.43249 119.99633 38971 ft 490 kts 40°
2026-05-07 13:34 23.49897 120.06432 38971 ft 490 kts 40°
2026-05-07 13:35 23.54867 120.11522 38970 ft 490 kts 40°
2026-05-07 13:35 23.59821 120.16628 38971 ft 490 kts 40°
2026-05-07 13:36 23.64739 120.21711 38971 ft 490 kts 40°
2026-05-07 13:36 23.69720 120.26866 38971 ft 490 kts 40°
2026-05-07 13:37 23.74631 120.31954 38972 ft 490 kts 40°
2026-05-07 13:37 23.79606 120.37114 38980 ft 490 kts 40°
2026-05-07 13:38 23.84546 120.42242 38980 ft 490 kts 40°
2026-05-07 13:38 23.89489 120.47378 38980 ft 490 kts 40°
2026-05-07 13:39 23.94416 120.52534 38986 ft 490 kts 40°
2026-05-07 13:39 23.99293 120.57682 38985 ft 490 kts 41°
2026-05-07 13:40 24.04199 120.62869 38991 ft 491 kts 40°
2026-05-07 13:40 24.09108 120.68061 38986 ft 491 kts 40°
2026-05-07 13:41 24.14016 120.73257 38992 ft 491 kts 40°
2026-05-07 13:41 24.18927 120.78456 38994 ft 491 kts 40°
2026-05-07 13:42 24.23837 120.83660 38983 ft 491 kts 40°
2026-05-07 13:42 24.28747 120.88873 38988 ft 491 kts 41°
2026-05-07 13:43 24.33656 120.94086 38989 ft 491 kts 41°
2026-05-07 13:43 24.38561 120.99304 38985 ft 492 kts 41°
2026-05-07 13:44 24.43206 121.04830 38983 ft 494 kts 47°
2026-05-07 13:44 24.47543 121.10698 38975 ft 495 kts 48°
2026-05-07 13:45 24.51819 121.16620 38981 ft 495 kts 48°
2026-05-07 13:45 24.56092 121.22544 38982 ft 495 kts 48°
2026-05-07 13:46 24.60374 121.28463 38972 ft 494 kts 48°
2026-05-07 13:46 24.64650 121.34382 38974 ft 495 kts 48°
2026-05-07 13:47 24.68930 121.40307 38970 ft 495 kts 48°
2026-05-07 13:47 24.73207 121.46239 38970 ft 495 kts 48°
2026-05-07 13:48 24.77475 121.52173 38975 ft 496 kts 49°
2026-05-07 13:48 24.81752 121.58123 38968 ft 495 kts 48°
2026-05-07 13:49 24.86021 121.64068 38972 ft 495 kts 48°
2026-05-07 13:49 24.90294 121.70023 38974 ft 495 kts 49°
2026-05-07 13:50 24.94734 121.75804 38971 ft 494 kts 45°
2026-05-07 13:50 24.99282 121.81469 38970 ft 493 kts 45°
2026-05-07 13:51 25.03809 121.87163 38971 ft 494 kts 45°
2026-05-07 13:51 25.08308 121.92891 38970 ft 495 kts 46°
2026-05-07 13:52 25.12802 121.98637 38962 ft 494 kts 46°
2026-05-07 13:52 25.17272 122.04405 38961 ft 494 kts 46°
2026-05-07 13:53 25.21691 122.10147 38962 ft 494 kts 46°
2026-05-07 13:53 25.26142 122.15934 38962 ft 494 kts 46°
2026-05-07 13:54 25.30591 122.21721 38963 ft 494 kts 46°
2026-05-07 13:54 25.35037 122.27507 38963 ft 494 kts 46°
2026-05-07 13:55 25.39486 122.33302 38962 ft 494 kts 46°
2026-05-07 13:55 25.43935 122.39109 38962 ft 495 kts 46°
2026-05-07 13:56 25.48376 122.44914 38962 ft 495 kts 46°
2026-05-07 13:56 25.52826 122.50725 38963 ft 494 kts 46°
2026-05-07 13:57 25.57287 122.56519 38971 ft 494 kts 46°
2026-05-07 13:57 25.61745 122.62314 38971 ft 494 kts 46°
2026-05-07 13:58 25.66203 122.68116 38971 ft 494 kts 46°
2026-05-07 13:58 25.70657 122.73921 38971 ft 494 kts 46°
2026-05-07 13:59 25.75107 122.79730 38971 ft 494 kts 46°
2026-05-07 13:59 25.79552 122.85541 38971 ft 494 kts 46°
2026-05-07 14:00 25.83999 122.91364 38972 ft 494 kts 46°
2026-05-07 14:00 25.88445 122.97192 38971 ft 494 kts 46°
2026-05-07 14:01 25.92851 123.02983 38972 ft 494 kts 46°
2026-05-07 14:01 25.97285 123.08814 38972 ft 494 kts 46°
2026-05-07 14:02 26.01715 123.14642 38970 ft 494 kts 46°
2026-05-07 14:02 26.06150 123.20487 38971 ft 496 kts 46°
2026-05-07 14:03 26.10598 123.26359 38972 ft 496 kts 46°
2026-05-07 14:03 26.15044 123.32236 38970 ft 496 kts 46°
2026-05-07 14:04 26.19484 123.38114 38972 ft 496 kts 46°
2026-05-07 14:04 26.23918 123.43992 38972 ft 496 kts 46°
2026-05-07 14:05 26.28345 123.49865 38978 ft 495 kts 46°
2026-05-07 14:05 26.32778 123.55753 38982 ft 495 kts 46°
2026-05-07 14:06 26.37206 123.61645 38980 ft 495 kts 46°
2026-05-07 14:06 26.41630 123.67537 38981 ft 495 kts 46°
2026-05-07 14:07 26.46050 123.73436 38983 ft 495 kts 46°
2026-05-07 14:07 26.50466 123.79336 38981 ft 495 kts 46°
2026-05-07 14:08 26.54883 123.85245 38979 ft 495 kts 46°
2026-05-07 14:08 26.59297 123.91154 38982 ft 496 kts 47°
2026-05-07 14:09 26.63721 123.97080 38978 ft 496 kts 47°
2026-05-07 14:09 26.68104 124.02971 38987 ft 497 kts 47°
2026-05-07 14:10 26.72536 124.08903 38989 ft 496 kts 46°
2026-05-07 14:10 26.76971 124.14834 38993 ft 497 kts 46°
2026-05-07 14:11 26.81397 124.20767 38981 ft 497 kts 46°
2026-05-07 14:11 26.85830 124.26719 38979 ft 498 kts 46°
2026-05-07 14:12 26.90264 124.32682 38975 ft 498 kts 46°
2026-05-07 14:12 26.94695 124.38652 38976 ft 498 kts 46°
2026-05-07 14:13 26.99127 124.44633 38981 ft 499 kts 47°
2026-05-07 14:13 27.03564 124.50624 38981 ft 499 kts 46°
2026-05-07 14:14 27.08004 124.56616 38975 ft 500 kts 47°
2026-05-07 14:14 27.12448 124.62622 38981 ft 500 kts 47°
2026-05-07 14:15 27.16888 124.68637 38983 ft 501 kts 47°
2026-05-07 14:15 27.21326 124.74663 38983 ft 501 kts 47°
2026-05-07 14:16 27.25761 124.80687 39003 ft 500 kts 47°
2026-05-07 14:16 27.30201 124.86727 39004 ft 501 kts 47°
2026-05-07 14:17 27.34635 124.92769 39014 ft 501 kts 47°
2026-05-07 14:17 27.39077 124.98828 39015 ft 502 kts 47°
2026-05-07 14:18 27.43523 125.04877 39009 ft 501 kts 46°
2026-05-07 14:18 27.48004 125.10905 39001 ft 502 kts 46°
2026-05-07 14:19 27.52451 125.16894 39002 ft 502 kts 46°
2026-05-07 14:19 27.56924 125.22938 39008 ft 502 kts 46°
2026-05-07 14:20 27.61402 125.28999 39027 ft 503 kts 46°
2026-05-07 14:20 27.65867 125.35059 39027 ft 503 kts 46°
2026-05-07 14:21 27.69580 125.40106 39027 ft 503 kts 46°
2026-05-07 14:21 27.74051 125.46188 39026 ft 504 kts 46°
2026-05-07 14:22 27.79278 125.53312 39026 ft 504 kts 46°
2026-05-07 14:22 27.83000 125.58394 39026 ft 505 kts 47°
2026-05-07 14:23 27.87473 125.64505 39026 ft 504 kts 46°
2026-05-07 14:23 27.91941 125.70621 39026 ft 505 kts 47°
2026-05-07 14:24 27.96410 125.76739 39027 ft 505 kts 47°
2026-05-07 14:24 28.00882 125.82868 39026 ft 505 kts 47°
2026-05-07 14:25 28.05353 125.89018 39029 ft 504 kts 47°
2026-05-07 14:25 28.09820 125.95156 39028 ft 506 kts 47°
2026-05-07 14:26 28.14283 126.01309 39027 ft 506 kts 47°
2026-05-07 14:26 28.18750 126.07476 39026 ft 506 kts 47°
2026-05-07 14:27 28.23210 126.13644 39026 ft 506 kts 47°
2026-05-07 14:27 28.27667 126.19811 39026 ft 506 kts 47°
2026-05-07 14:28 28.32124 126.25988 39026 ft 506 kts 47°
2026-05-07 14:28 28.36576 126.32167 39028 ft 505 kts 47°
2026-05-07 14:29 28.41025 126.38349 39027 ft 505 kts 47°
2026-05-07 14:29 28.45467 126.44533 39026 ft 506 kts 47°
2026-05-07 14:30 28.49912 126.50731 39026 ft 505 kts 47°
2026-05-07 14:30 28.54351 126.56929 39027 ft 505 kts 47°
2026-05-07 14:31 28.58785 126.63129 39027 ft 505 kts 47°
2026-05-07 14:31 28.63215 126.69334 39026 ft 505 kts 47°
2026-05-07 14:32 28.67643 126.75538 39027 ft 505 kts 47°
2026-05-07 14:32 28.72067 126.81754 39027 ft 505 kts 47°
2026-05-07 14:33 28.76484 126.87969 39026 ft 505 kts 47°
2026-05-07 14:33 28.80902 126.94193 39014 ft 504 kts 47°
2026-05-07 14:34 28.85313 127.00415 39007 ft 505 kts 47°
2026-05-07 14:34 28.89721 127.06644 39007 ft 504 kts 47°
2026-05-07 14:35 28.94127 127.12877 38999 ft 505 kts 47°
2026-05-07 14:35 28.98497 127.19072 39014 ft 504 kts 47°
2026-05-07 14:36 29.02897 127.25316 39010 ft 504 kts 48°
2026-05-07 14:36 29.07290 127.31560 39004 ft 504 kts 48°
2026-05-07 14:37 29.11683 127.37816 39007 ft 504 kts 48°
2026-05-07 14:37 29.18263 127.47200 38999 ft 504 kts 48°
2026-05-07 14:38 29.22648 127.53465 39005 ft 504 kts 48°
2026-05-07 14:38 29.27025 127.59729 39016 ft 504 kts 48°
2026-05-07 14:39 29.31402 127.66003 39004 ft 504 kts 48°
2026-05-07 14:39 29.35776 127.72282 39015 ft 504 kts 48°
2026-05-07 14:40 29.40141 127.78557 39007 ft 504 kts 48°
2026-05-07 14:40 29.44504 127.84841 39016 ft 504 kts 48°
2026-05-07 14:41 29.48866 127.91133 39000 ft 504 kts 48°
2026-05-07 14:41 29.53224 127.97428 39012 ft 504 kts 48°
2026-05-07 14:42 29.57583 128.03730 39006 ft 503 kts 48°
2026-05-07 14:42 29.61933 128.10025 39016 ft 503 kts 48°
2026-05-07 14:43 29.66290 128.16338 39012 ft 503 kts 48°
2026-05-07 14:43 29.70640 128.22654 39014 ft 504 kts 48°
2026-05-07 14:44 29.74986 128.28974 39015 ft 504 kts 48°
2026-05-07 14:44 29.79302 128.35257 39012 ft 503 kts 48°
2026-05-07 14:45 29.83638 128.41585 39012 ft 503 kts 48°
2026-05-07 14:45 29.87974 128.47919 38994 ft 504 kts 48°
2026-05-07 14:46 29.92313 128.54261 39002 ft 504 kts 49°
2026-05-07 14:46 29.96645 128.60611 39001 ft 504 kts 49°
2026-05-07 14:47 30.00975 128.66967 38994 ft 504 kts 49°
2026-05-07 14:47 30.05301 128.73327 39001 ft 504 kts 49°
2026-05-07 14:48 30.09628 128.79700 38998 ft 504 kts 49°
2026-05-07 14:48 30.13956 128.86083 38992 ft 505 kts 49°
2026-05-07 14:49 30.18282 128.92470 39004 ft 505 kts 49°
2026-05-07 14:49 30.22607 128.98866 39001 ft 505 kts 49°
2026-05-07 14:50 30.26922 129.05263 38999 ft 505 kts 49°
2026-05-07 14:50 30.31244 129.11679 39002 ft 505 kts 50°
2026-05-07 14:51 30.35564 129.18101 38998 ft 505 kts 50°
2026-05-07 14:51 30.39879 129.24528 39000 ft 506 kts 50°
2026-05-07 14:52 30.44194 129.30963 38996 ft 506 kts 50°
2026-05-07 14:52 30.48507 129.37401 38992 ft 506 kts 50°
2026-05-07 14:53 30.52815 129.43849 38986 ft 506 kts 50°
2026-05-07 14:53 30.57123 129.50307 38992 ft 506 kts 50°
2026-05-07 14:54 30.61427 129.56768 38992 ft 506 kts 50°
2026-05-07 14:54 30.65726 129.63233 38991 ft 506 kts 50°
2026-05-07 14:55 30.70026 129.69711 38992 ft 506 kts 50°
2026-05-07 14:55 30.74323 129.76191 38992 ft 506 kts 50°
2026-05-07 14:56 30.78622 129.82678 38987 ft 506 kts 50°
2026-05-07 14:56 30.83640 129.88293 38986 ft 499 kts 32°
2026-05-07 14:57 30.89808 129.91742 38991 ft 490 kts 12°
2026-05-07 14:57 30.96487 129.92996 38990 ft 486 kts
2026-05-07 14:58 31.03214 129.93719 38991 ft 486 kts
2026-05-07 14:58 31.09946 129.94394 38989 ft 485 kts
2026-05-07 14:59 31.16671 129.95109 38992 ft 485 kts
2026-05-07 14:59 31.23396 129.95845 38991 ft 485 kts
2026-05-07 15:00 31.30121 129.96588 38992 ft 485 kts
2026-05-07 15:00 31.36850 129.97172 38990 ft 485 kts
2026-05-07 15:01 31.43582 129.97655 38888 ft 484 kts
2026-05-07 15:01 31.46946 129.97902 38638 ft 484 kts
2026-05-07 15:01 31.50264 129.98151 38347 ft 485 kts
2026-05-07 15:02 31.53625 129.98408 37946 ft 484 kts
2026-05-07 15:02 31.56986 129.98672 37558 ft 484 kts
2026-05-07 15:02 31.60348 129.98939 37157 ft 485 kts
2026-05-07 15:02 31.63719 129.99209 36766 ft 485 kts
2026-05-07 15:03 31.67087 129.99478 36368 ft 485 kts
2026-05-07 15:03 31.70459 129.99747 35969 ft 486 kts
2026-05-07 15:03 31.73840 130.00016 35569 ft 489 kts
2026-05-07 15:03 31.77254 130.00289 35172 ft 493 kts
2026-05-07 15:04 31.80686 130.00564 34774 ft 496 kts
2026-05-07 15:04 31.84143 130.00841 34375 ft 498 kts
2026-05-07 15:04 31.87600 130.01117 33992 ft 499 kts
2026-05-07 15:04 31.91063 130.01394 33619 ft 499 kts
2026-05-07 15:05 31.94532 130.01650 33427 ft 500 kts 359°
2026-05-07 15:05 31.98005 130.01775 33128 ft 499 kts 358°
2026-05-07 15:05 32.01479 130.01819 32626 ft 500 kts 357°
2026-05-07 15:05 32.04960 130.01821 32078 ft 501 kts 357°
2026-05-07 15:06 32.07275 130.01814 31715 ft 503 kts 357°
2026-05-07 15:06 32.10783 130.01801 31172 ft 505 kts 357°
2026-05-07 15:06 32.15502 130.01795 30430 ft 509 kts 357°
2026-05-07 15:06 32.17857 130.01797 30068 ft 513 kts 357°
2026-05-07 15:07 32.22659 130.01810 29287 ft 517 kts 357°
2026-05-07 15:07 32.25043 130.01819 28890 ft 517 kts 357°
2026-05-07 15:07 32.28629 130.01833 28288 ft 513 kts 357°
2026-05-07 15:07 32.32182 130.01849 27691 ft 509 kts 357°
2026-05-07 15:08 32.35709 130.01866 27087 ft 504 kts 357°
2026-05-07 15:08 32.39198 130.01882 26487 ft 500 kts 357°
2026-05-07 15:08 32.42664 130.01895 25883 ft 495 kts 357°
2026-05-07 15:08 32.46093 130.01907 25286 ft 491 kts 357°
2026-05-07 15:09 32.49497 130.01919 24684 ft 487 kts 357°
2026-05-07 15:09 32.52869 130.01930 24086 ft 482 kts 357°
2026-05-07 15:09 32.56208 130.01942 23558 ft 478 kts 357°
2026-05-07 15:09 32.59435 130.01954 23070 ft 475 kts 357°
2026-05-07 15:10 32.62740 130.01967 22568 ft 472 kts 357°
2026-05-07 15:10 32.66016 130.01979 22070 ft 469 kts 357°
2026-05-07 15:10 32.69264 130.01991 21568 ft 466 kts 357°
2026-05-07 15:10 32.72499 130.02003 21106 ft 463 kts 357°
2026-05-07 15:11 32.75712 130.02014 20677 ft 460 kts 357°
2026-05-07 15:11 32.78899 130.01943 20256 ft 456 kts 353°
2026-05-07 15:11 32.82023 130.01455 19826 ft 451 kts 347°
2026-05-07 15:11 32.85098 130.00789 19401 ft 448 kts 346°
2026-05-07 15:12 32.88138 130.00051 18975 ft 445 kts 345°
2026-05-07 15:12 32.91155 129.99278 18549 ft 442 kts 344°
2026-05-07 15:12 32.94152 129.98494 18127 ft 440 kts 344°
2026-05-07 15:12 32.97128 129.97714 17701 ft 437 kts 344°
2026-05-07 15:13 33.00092 129.96942 17270 ft 434 kts 344°
2026-05-07 15:13 33.03033 129.96180 16849 ft 432 kts 345°
2026-05-07 15:13 33.05959 129.95426 16425 ft 429 kts 345°
2026-05-07 15:13 33.08868 129.94681 16068 ft 426 kts 345°
2026-05-07 15:14 33.11756 129.93939 15962 ft 424 kts 345°
2026-05-07 15:14 33.14634 129.93202 15962 ft 423 kts 345°
2026-05-07 15:14 33.17513 129.92463 15961 ft 423 kts 345°
2026-05-07 15:14 33.20386 129.91730 15961 ft 422 kts 345°
2026-05-07 15:15 33.23276 129.91078 15952 ft 424 kts 348°
2026-05-07 15:15 33.26201 129.90659 15852 ft 420 kts 352°
2026-05-07 15:15 33.29094 129.90344 15175 ft 417 kts 352°
2026-05-07 15:15 33.31984 129.90034 14449 ft 415 kts 352°
2026-05-07 15:16 33.34842 129.89727 13772 ft 411 kts 352°
2026-05-07 15:16 33.37671 129.89415 13225 ft 406 kts 352°
2026-05-07 15:16 33.40482 129.89097 12975 ft 406 kts 352°
2026-05-07 15:16 33.43291 129.88776 12489 ft 404 kts 352°
2026-05-07 15:17 33.46089 129.88453 11831 ft 401 kts 352°
2026-05-07 15:17 33.48842 129.88132 11283 ft 394 kts 352°
2026-05-07 15:17 33.51554 129.87805 10722 ft 389 kts 352°
2026-05-07 15:17 33.54194 129.87483 10446 ft 374 kts 352°
2026-05-07 15:18 33.56731 129.87171 10177 ft 357 kts 352°
2026-05-07 15:18 33.59119 129.86882 9784 ft 334 kts 352°
2026-05-07 15:18 33.61334 129.86618 9416 ft 314 kts 352°
2026-05-07 15:18 33.63461 129.86429 8865 ft 302 kts 359°
2026-05-07 15:19 33.65491 129.86981 8164 ft 300 kts 24°
2026-05-07 15:19 33.67295 129.88185 7481 ft 295 kts 31°
2026-05-07 15:19 33.69017 129.89503 6800 ft 291 kts 32°
2026-05-07 15:19 33.70707 129.90815 6196 ft 291 kts 32°
2026-05-07 15:20 33.72399 129.92129 5817 ft 287 kts 32°
2026-05-07 15:20 33.74070 129.93421 5410 ft 284 kts 32°
2026-05-07 15:20 33.75721 129.94694 5041 ft 281 kts 32°
2026-05-07 15:20 33.77351 129.95982 4639 ft 279 kts 35°
2026-05-07 15:21 33.78632 129.97710 4208 ft 278 kts 62°
2026-05-07 15:21 33.79143 129.99914 3802 ft 275 kts 89°
2026-05-07 15:21 33.78977 130.02186 3441 ft 271 kts 100°
2026-05-07 15:21 33.78641 130.04409 3099 ft 269 kts 102°
2026-05-07 15:22 33.78250 130.06602 2909 ft 268 kts 107°
2026-05-07 15:22 33.77500 130.08633 2513 ft 265 kts 120°
2026-05-07 15:22 33.76571 130.10540 2133 ft 264 kts 121°
2026-05-07 15:22 33.75621 130.12418 1997 ft 261 kts 122°
2026-05-07 15:23 33.74671 130.14283 1989 ft 262 kts 122°
2026-05-07 15:23 33.73713 130.16152 1996 ft 262 kts 122°
2026-05-07 15:23 33.72768 130.18012 1998 ft 261 kts 122°
2026-05-07 15:23 33.71823 130.19872 1997 ft 260 kts 122°
2026-05-07 15:24 33.70881 130.21725 1997 ft 261 kts 122°
2026-05-07 15:24 33.69937 130.23579 1998 ft 260 kts 122°
2026-05-07 15:24 33.68994 130.25433 1996 ft 260 kts 122°
2026-05-07 15:24 33.68055 130.27284 1997 ft 260 kts 122°
2026-05-07 15:25 33.67113 130.29138 1998 ft 260 kts 122°
2026-05-07 15:25 33.66130 130.30952 1992 ft 259 kts 130°
2026-05-07 15:25 33.64784 130.32371 1999 ft 258 kts 144°
2026-05-07 15:25 33.63383 130.33718 1997 ft 258 kts 141°
2026-05-07 15:26 33.61995 130.35084 1999 ft 258 kts 141°
2026-05-07 15:26 33.60593 130.36430 2000 ft 259 kts 142°
2026-05-07 15:26 33.59205 130.37759 1994 ft 249 kts 142°
2026-05-07 15:26 33.57805 130.38822 1988 ft 229 kts 159°
2026-05-07 15:27 33.56361 130.39430 1983 ft 211 kts 156°
2026-05-07 15:27 33.55169 130.40317 1995 ft 193 kts 143°
2026-05-07 15:27 33.54170 130.41240 2004 ft 172 kts 142°
2026-05-07 15:27 33.53208 130.41979 1995 ft 158 kts 153°
2026-05-07 15:28 33.52246 130.42521 1996 ft 150 kts 156°
2026-05-07 15:28 33.51314 130.43054 1991 ft 146 kts 149°
2026-05-07 15:28 33.50634 130.43933 1996 ft 145 kts 120°
2026-05-07 15:28 33.50280 130.45058 1978 ft 147 kts 102°
2026-05-07 15:29 33.50216 130.46280 1777 ft 146 kts 88°
2026-05-07 15:29 33.50491 130.47437 1580 ft 148 kts 62°
2026-05-07 15:29 33.51124 130.48396 1325 ft 142 kts 41°
2026-05-07 15:29 33.51984 130.48963 1307 ft 147 kts 18°
2026-05-07 15:30 33.53014 130.49104 1088 ft 146 kts 349°
2026-05-07 15:30 33.53918 130.48534 904 ft 153 kts 320°
2026-05-07 15:30 33.54734 130.47755 670 ft 147 kts 323°
2026-05-07 15:30 33.55573 130.47108 501 ft 143 kts 329°
2026-05-07 15:31 33.56439 130.46524 331 ft 143 kts 331°
2026-05-07 15:31 33.57304 130.45941 140 ft 142 kts 333°
2026-05-07 15:31 33.58156 130.45366 40 ft 132 kts 328°
2026-05-07 15:31 33.58748 130.44963 36 ft 64 kts 330°
2026-05-07 15:32 33.59029 130.44769 31 ft 39 kts 323°
2026-05-07 15:32 33.59168 130.44577 30 ft 14 kts 303°
2026-05-07 15:32 33.59194 130.44523 31 ft 0 kts 298°
2026-05-07 15:33 33.59218 130.44472 31 ft 11 kts 300°
2026-05-07 15:33 33.59243 130.44397 30 ft 4 kts 266°
2026-05-07 15:33 33.59225 130.44359 30 ft 12 kts 249°
2026-05-07 15:34 33.59177 130.44302 31 ft 8 kts 199°
2026-05-07 15:34 33.59116 130.44297 31 ft 10 kts 171°
2026-05-07 15:34 33.59056 130.44343 31 ft 11 kts 143°
2026-05-07 15:34 33.58983 130.44394 32 ft 12 kts 148°
2026-05-07 15:35 33.58902 130.44438 33 ft 13 kts 175°
2026-05-07 15:35 33.58029 130.45455 42 ft 1 kts 330°